Time,TemperatureF,DewpointF,PressureIn,WindDirection,WindDirectionDegrees,WindSpeedMPH,WindSpeedGustMPH,Humidity,HourlyPrecipIn,Conditions,Clouds,dailyrainin,SolarRadiationWatts/m^2,SoftwareType,DateUTC
2013-01-24 00:30:00,56.3,45.5,30.31,NE,48,2.0,2.0,67,0.00,,,0.00,0,Wunderground v.1.15,2013-01-24 05:30:00,
2013-01-24 01:00:00,54.9,44.1,30.32,NE,51,1.0,1.0,67,0.00,,,0.00,0,Wunderground v.1.15,2013-01-24 06:00:00,
2013-01-24 01:30:00,54.5,44.5,30.32,ENE,63,1.0,1.0,69,0.00,,,0.00,0,Wunderground v.1.15,2013-01-24 06:30:00,
2013-01-24 02:00:00,54.4,45.9,30.29,ENE,63,3.0,3.0,73,0.00,,,0.00,0,Wunderground v.1.15,2013-01-24 07:00:00,
2013-01-24 02:30:00,55.5,46.2,30.28,East,85,2.0,2.0,71,0.00,,,0.00,0,Wunderground v.1.15,2013-01-24 07:30:00,
2013-01-24 03:00:00,56.8,46.7,30.28,East,90,1.0,1.0,69,0.00,,,0.00,0,Wunderground v.1.15,2013-01-24 08:00:00,
2013-01-24 03:30:00,56.7,46.6,30.27,East,90,1.0,1.0,69,0.00,,,0.00,0,Wunderground v.1.15,2013-01-24 08:30:00,
2013-01-24 04:00:00,54.0,47.0,30.27,ESE,105,4.0,4.0,77,0.00,,,0.00,0,Wunderground v.1.15,2013-01-24 09:00:00,
2013-01-24 04:30:00,54.5,46.4,30.27,East,89,1.0,1.0,74,0.00,,,0.00,0,Wunderground v.1.15,2013-01-24 09:30:00,
2013-01-24 05:00:00,53.6,46.6,30.28,ESE,105,3.0,3.0,77,0.00,,,0.00,0,Wunderground v.1.15,2013-01-24 10:00:00,
2013-01-24 05:30:00,55.0,47.2,30.29,East,99,0.0,0.0,75,0.00,,,0.00,0,Wunderground v.1.15,2013-01-24 10:30:00,
2013-01-24 06:00:00,55.0,47.6,30.30,East,99,0.0,0.0,76,0.00,,,0.00,0,Wunderground v.1.15,2013-01-24 11:00:00,
2013-01-24 06:30:00,55.1,44.7,30.31,East,99,0.0,0.0,68,0.00,,,0.00,0,Wunderground v.1.15,2013-01-24 11:30:00,
2013-01-24 07:00:00,53.7,46.7,30.31,East,99,0.0,0.0,77,0.00,,,0.00,0,Wunderground v.1.15,2013-01-24 12:00:00,
2013-01-24 07:30:00,53.0,46.0,30.31,East,99,0.0,0.0,77,0.00,,,0.00,12,Wunderground v.1.15,2013-01-24 12:30:00,
2013-01-24 08:00:00,52.6,46.9,30.32,East,99,1.0,1.0,81,0.00,,,0.00,83,Wunderground v.1.15,2013-01-24 13:00:00,
2013-01-24 08:30:00,54.2,47.1,30.33,ENE,69,0.0,0.0,77,0.00,,,0.00,169,Wunderground v.1.15,2013-01-24 13:30:00,
2013-01-24 09:00:00,54.1,45.3,30.33,NE,49,4.0,5.0,72,0.00,,,0.00,265,Wunderground v.1.15,2013-01-24 14:00:00,
2013-01-24 09:30:00,55.9,44.3,30.34,NNE,28,7.0,7.0,65,0.00,,,0.00,359,Wunderground v.1.15,2013-01-24 14:30:00,
2013-01-24 10:00:00,58.0,46.7,30.35,NNE,24,4.0,4.0,66,0.00,,,0.00,445,Wunderground v.1.15,2013-01-24 15:00:00,
2013-01-24 10:30:00,60.9,47.4,30.35,NNE,24,0.0,0.0,61,0.00,,,0.00,519,Wunderground v.1.15,2013-01-24 15:30:00,
2013-01-24 11:00:00,61.8,48.2,30.34,NNE,23,0.0,0.0,61,0.00,,,0.00,571,Wunderground v.1.15,2013-01-24 16:00:00,
2013-01-24 11:30:00,63.2,46.8,30.34,NNE,24,0.0,0.0,55,0.00,,,0.00,629,Wunderground v.1.15,2013-01-24 16:30:00,
2013-01-24 12:00:00,64.9,46.8,30.31,NNW,346,0.0,0.0,52,0.00,,,0.00,668,Wunderground v.1.15,2013-01-24 17:00:00,
2013-01-24 12:30:00,65.1,47.0,30.30,NW,316,7.0,8.0,52,0.00,,,0.00,680,Wunderground v.1.15,2013-01-24 17:30:00,
2013-01-24 13:00:00,65.5,48.4,30.29,NW,312,10.0,12.0,54,0.00,,,0.00,682,Wunderground v.1.15,2013-01-24 18:00:00,
2013-01-24 13:30:00,65.7,49.6,30.26,NW,307,12.0,13.0,56,0.00,,,0.00,664,Wunderground v.1.15,2013-01-24 18:30:00,
2013-01-24 14:00:00,65.8,50.6,30.25,NW,304,15.0,16.0,58,0.00,,,0.00,635,Wunderground v.1.15,2013-01-24 19:00:00,
2013-01-24 14:30:00,66.0,51.7,30.25,WNW,301,16.0,16.0,60,0.00,,,0.00,585,Wunderground v.1.15,2013-01-24 19:30:00,
2013-01-24 15:00:00,65.9,50.2,30.24,WNW,290,18.0,18.0,57,0.00,,,0.00,526,Wunderground v.1.15,2013-01-24 20:00:00,
2013-01-24 15:30:00,65.7,53.2,30.25,WNW,303,17.0,20.0,64,0.00,,,0.00,445,Wunderground v.1.15,2013-01-24 20:30:00,
2013-01-24 16:00:00,65.6,53.5,30.25,WNW,302,16.0,16.0,65,0.00,,,0.00,364,Wunderground v.1.15,2013-01-24 21:00:00,
2013-01-24 16:30:00,65.6,53.9,30.25,NW,305,16.0,20.0,66,0.00,,,0.00,265,Wunderground v.1.15,2013-01-24 21:30:00,
2013-01-24 17:00:00,65.4,54.2,30.25,NW,305,18.0,18.0,67,0.00,,,0.00,172,Wunderground v.1.15,2013-01-24 22:00:00,
2013-01-24 17:30:00,65.0,54.6,30.25,NW,311,16.0,16.0,69,0.00,,,0.00,83,Wunderground v.1.15,2013-01-24 22:30:00,
2013-01-24 18:00:00,64.4,55.6,30.26,NNW,327,15.0,15.0,73,0.00,,,0.00,12,Wunderground v.1.15,2013-01-24 23:00:00,
2013-01-24 18:30:00,63.9,56.5,30.26,NNW,329,15.0,15.0,77,0.00,,,0.00,0,Wunderground v.1.15,2013-01-24 23:30:00,
2013-01-24 19:00:00,63.3,56.7,30.27,NW,321,12.0,14.0,79,0.00,,,0.00,0,Wunderground v.1.15,2013-01-25 00:00:00,
2013-01-24 19:30:00,63.1,57.2,30.28,NW,321,12.0,12.0,81,0.00,,,0.00,0,Wunderground v.1.15,2013-01-25 00:30:00,
2013-01-24 20:00:00,62.9,56.6,30.28,NNW,329,12.0,13.0,80,0.00,,,0.00,0,Wunderground v.1.15,2013-01-25 01:00:00,
2013-01-24 20:30:00,62.9,56.3,30.29,NNW,339,11.0,11.0,79,0.00,,,0.00,0,Wunderground v.1.15,2013-01-25 01:30:00,
2013-01-24 21:00:00,62.5,55.9,30.29,North,360,9.0,9.0,79,0.00,,,0.00,0,Wunderground v.1.15,2013-01-25 02:00:00,
2013-01-24 21:30:00,62.1,56.2,30.29,North,350,5.0,7.0,81,0.00,,,0.00,0,Wunderground v.1.15,2013-01-25 02:30:00,
2013-01-24 22:00:00,61.5,56.3,30.30,North,360,5.0,8.0,83,0.00,,,0.00,0,Wunderground v.1.15,2013-01-25 03:00:00,
2013-01-24 22:30:00,61.4,56.5,30.30,North,5,6.0,6.0,84,0.00,,,0.00,0,Wunderground v.1.15,2013-01-25 03:30:00,
2013-01-24 23:00:00,61.1,56.6,30.30,North,5,3.0,3.0,85,0.00,,,0.00,0,Wunderground v.1.15,2013-01-25 04:00:00,
2013-01-24 23:30:00,61.0,56.8,30.30,North,9,4.0,4.0,86,0.00,,,0.00,0,Wunderground v.1.15,2013-01-25 04:30:00,